Wetbulb
65.19 64.30 64.53 63.80 63.04 62.82 61.89 61.43 60.68 59.42 59.05 58.40 57.56 56.55 55.31 55.71 55.73 55.67 57.40 57.80 59.37 60.06 60.78 59.48 58.76 57.87 56.13 54.67 54.71 54.26 53.58 52.95 52.84 52.54 52.53 52.49 51.84 51.53 51.55 51.05 50.62 50.26 50.44
65.36 63.74 63.24 62.74 62.77 62.64 62.41 61.33 59.99 59.10 58.50 57.74 56.49 55.11 54.54 54.81 54.71 55.48 56.37 56.40 57.30 58.21 58.09 58.03 58.16 57.16 55.63 53.91 52.94 52.33 51.95 51.76 51.93 52.20 52.18 51.74 52.02 51.61 51.23 50.25 49.72 49.48 49.74
65.16 64.50 63.52 62.69 62.46 62.84 62.03 60.75 59.76 59.13 57.80 56.55 54.81 54.64 54.70 54.31 54.11 54.67 55.04 55.75 55.39 55.01 54.54 54.08 53.43 52.81 52.21 51.88 51.64 51.22 51.04 50.99 50.98 51.16 51.27 51.29 51.51 51.12 50.86 49.64 49.80 49.72 49.31
65.16 64.59 63.22 62.84 62.72 62.06 61.01 59.54 58.89 57.71 56.68 55.87 55.01 54.67 54.73 54.38 53.91 53.61 54.08 54.08 54.60 54.33 51.97 51.57 50.68 50.28 50.05 49.40 48.95 48.88 48.86 49.11 49.73 50.27 50.29 50.67 51.01 51.11 51.07 50.68 50.47 49.97 49.22
64.94 64.43 63.67 63.06 62.39 61.34 60.25 59.39 58.59 57.75 55.36 54.61 54.34 54.58 54.52 54.08 53.61 52.50 52.19 52.42 52.17 51.43 51.82 49.16 48.77 47.88 46.98 46.45 46.43 47.06 47.96 48.31 48.57 48.85 48.93 48.84 48.92 49.13 49.23 49.34 49.51 49.55 49.14
64.65 64.38 63.59 62.52 61.77 60.50 59.59 58.91 58.03 55.81 55.59 55.04 52.16 51.84 53.52 53.50 53.19 52.66 51.74 51.39 51.41 51.18 50.71 50.42 49.61 48.47 47.05 45.92 43.85 44.54 45.94 46.61 46.79 46.89 47.27 47.41 47.69 47.69 47.97 48.01 48.18 48.56 48.84
64.35 63.92 63.03 62.05 61.38 60.07 59.28 58.82 56.38 54.74 53.12 53.76 53.02 53.51 53.40 53.06 52.45 51.79 51.67 50.98 50.49 50.06 50.31 49.25 48.68 48.34 47.07 45.19 44.60 43.98 43.02 44.76 45.61 46.23 46.69 46.58 46.67 46.85 47.08 47.39 47.68 48.03 48.57
64.12 63.40 62.96 61.30 60.68 59.48 58.94 57.61 55.84 53.83 53.55 53.99 52.81 52.72 50.60 50.73 51.29 51.20 51.08 50.15 50.03 49.76 49.19 48.60 48.13 47.37 46.98 46.71 46.44 43.55 42.81 42.97 44.36 45.36 45.83 45.46 45.61 45.60 45.78 46.10 46.38 46.77 47.26
63.91 63.08 62.67 61.72 60.86 59.86 57.68 56.85 55.44 53.76 51.63 52.93 53.75 51.31 49.21 48.04 49.39 50.95 49.86 49.69 49.62 48.90 49.20 48.41 48.20 47.42 47.06 46.50 46.01 45.67 42.97 41.82 42.00 43.21 43.94 44.06 44.10 44.25 44.71 45.04 45.37 45.83 46.36
63.64 62.77 62.25 61.62 60.32 59.09 57.91 56.25 54.87 54.03 53.04 51.68 53.82 52.52 52.58 50.90 45.59 44.93 49.12 49.04 49.06 48.08 48.37 48.05 47.64 47.38 47.28 46.76 46.92 43.53 41.46 39.94 39.39 40.76 42.18 42.36 42.43 42.66 43.05 43.47 44.05 44.41 44.90
63.15 62.35 61.70 60.86 59.51 57.94 56.87 56.12 54.07 53.16 53.43 51.02 50.85 49.57 51.56 49.92 48.89 45.02 43.10 46.23 47.84 47.67 47.63 47.40 47.37 46.95 46.65 46.27 46.07 42.03 39.69 37.95 38.28 39.73 40.26 40.65 41.06 41.33 41.76 42.29 42.88 43.24 43.68
60.57 60.82 59.60 58.50 56.90 54.16 53.90 53.85 53.40 51.74 50.46 51.39 49.95 50.79 49.16 47.08 46.87 46.33 44.51 44.60 44.37 46.27 47.15 47.10 46.46 46.07 46.21 45.91 45.74 40.68 38.81 38.00 38.62 38.83 38.58 39.30 39.55 39.93 40.66 41.28 41.84 42.21 42.66
55.77 54.91 54.45 53.85 52.22 51.29 49.72 49.98 49.91 49.39 49.44 49.26 50.50 50.03 49.14 48.80 48.62 46.42 44.33 42.96 42.21 44.72 45.10 46.30 46.04 45.79 45.42 45.61 44.90 39.65 40.38 40.14 39.70 37.83 37.97 37.75 37.98 38.51 39.12 39.68 40.35 40.93 41.41
52.14 53.66 51.86 52.97 51.01 48.88 49.84 50.33 49.29 48.13 48.71 49.70 50.27 49.53 48.99 48.55 47.98 46.62 44.43 42.55 40.36 41.37 42.57 43.20 45.87 45.97 45.69 45.31 42.72 39.97 41.69 41.12 39.81 37.82 36.28 36.63 36.63 37.03 37.45 37.88 38.43 39.01 39.64
54.31 53.58 53.71 51.96 49.43 48.95 48.31 47.70 47.46 48.53 47.45 50.56 49.86 49.04 48.40 47.78 47.64 47.33 46.29 44.56 41.17 36.91 37.90 41.73 41.77 45.46 44.71 44.52 43.54 42.37 41.21 40.79 39.81 38.07 37.08 36.03 36.08 36.10 36.21 36.33 36.65 37.11 37.81
54.42 53.45 52.39 50.32 49.57 49.17 47.31 47.59 47.57 47.51 48.28 47.82 48.78 48.02 47.82 47.94 47.21 46.20 45.14 44.51 43.30 40.59 36.88 41.39 41.99 43.73 43.86 42.61 43.10 41.61 40.80 41.06 39.32 38.71 37.91 36.59 35.23 35.20 35.00 35.07 35.25 35.67 36.09
54.30 53.44 51.97 51.04 48.69 46.95 45.61 45.89 47.67 47.73 47.20 47.45 47.18 46.18 46.78 47.22 45.97 44.95 44.57 44.01 42.57 41.99 39.00 41.03 42.42 44.00 42.81 42.03 41.89 42.01 41.08 39.56 39.14 38.68 37.85 36.71 35.20 34.15 34.00 33.90 33.83 34.31 34.97
56.27 53.90 52.57 49.12 46.79 45.35 46.01 46.91 45.71 45.58 46.33 44.84 45.11 45.78 45.84 45.81 45.12 44.88 43.95 43.89 43.01 43.50 41.12 38.99 41.70 41.62 41.55 42.09 42.01 39.97 38.60 38.70 37.87 37.89 38.22 35.74 35.40 34.73 33.93 33.64 33.60 33.80 34.01
52.71 49.95 47.40 45.79 45.33 45.30 45.60 46.06 46.16 45.66 45.29 44.51 44.49 46.02 45.72 45.87 44.72 44.54 44.50 43.62 43.29 42.79 43.00 40.79 39.56 41.92 40.83 41.18 39.84 39.40 38.35 37.77 37.33 38.61 37.72 36.89 36.31 35.55 34.54 34.69 34.22 34.33 34.34
46.75 45.71 45.96 44.83 44.16 44.83 44.79 44.15 44.18 44.69 44.28 44.31 45.33 46.31 45.17 44.88 44.83 44.51 44.20 44.16 43.35 42.86 42.57 40.66 39.95 39.93 39.68 40.48 38.97 36.02 35.61 37.23 35.37 36.35 36.96 36.15 36.22 36.10 36.09 35.98 35.57 34.88 34.83
49.22 47.15 44.38 43.51 43.29 43.96 43.90 44.13 44.49 44.22 43.27 43.61 45.13 45.34 45.54 44.79 42.01 41.97 43.23 43.75 43.59 42.19 41.20 40.03 38.87 38.65 37.73 37.68 35.82 36.29 34.29 34.49 34.86 36.12 35.40 35.27 35.52 35.55 36.34 36.61 36.92 36.78 36.01
47.89 45.55 43.77 44.63 43.07 43.24 39.96 40.17 42.62 43.86 42.69 42.65 42.64 43.71 44.84 42.67 42.86 38.81 39.19 38.60 40.50 41.48 40.62 39.75 39.01 37.45 37.39 37.26 37.11 35.52 33.90 31.53 28.96 36.22 33.96 32.92 35.37 34.23 35.68 36.46 35.91 34.46 34.64
45.39 43.36 42.87 42.64 42.73 44.09 39.34 39.18 37.88 41.05 39.62 39.95 40.46 41.65 42.72 43.52 41.58 43.49 40.61 37.04 37.06 36.27 36.33 39.21 38.88 38.69 37.75 37.82 36.68 34.43 33.11 31.75 31.00 33.47 33.04 31.13 34.65 33.21 35.56 35.42 35.93 35.13 35.19
43.76 43.90 43.87 44.29 44.82 44.32 39.31 38.40 36.84 39.02 38.98 40.28 42.58 43.02 42.33 42.41 42.48 41.40 42.03 41.50 42.26 42.62 40.88 38.28 37.70 39.82 39.94 38.66 36.72 35.19 33.71 32.31 32.66 33.60 34.74 29.51 33.67 32.35 33.92 35.12 34.98 35.66 35.24
45.61 45.05 45.09 44.15 43.14 43.21 38.36 37.29 37.47 39.86 41.23 40.99 41.41 41.56 41.31 40.96 39.27 38.28 39.45 39.32 40.12 40.85 39.50 37.15 36.83 35.41 31.78 31.18 31.32 34.53 30.67 29.07 29.25 29.90 34.18 31.42 31.50 31.26 32.80 32.94 34.83 33.12 34.22
44.38 44.65 42.95 42.19 39.35 41.67 39.51 37.62 37.89 39.37 38.04 38.77 39.41 40.11 37.51 38.42 36.17 35.79 38.58 38.25 36.94 39.25 39.19 38.91 37.37 34.54 32.87 33.32 30.51 32.08 31.38 28.43 28.76 28.52 33.09 30.40 29.98 29.74 27.18 31.98 33.13 33.99 34.82
MSLP
1021.26 1021.29 1021.28 1021.44 1021.68 1022.08 1022.25 1022.38 1022.76 1023.02 1023.39 1023.52 1023.51 1023.78 1023.66 1023.95 1023.89 1023.63 1024.72 1025.41 1025.29 1024.88 1025.17 1025.50 1025.61 1025.92 1026.28 1026.54 1026.64 1026.74 1026.82 1026.91 1027.02 1027.04 1027.01 1026.97 1027.07 1027.13 1027.07 1027.00 1026.98 1026.89 1026.65
1021.37 1021.34 1021.65 1021.45 1021.53 1021.77 1022.02 1022.14 1022.44 1022.79 1022.88 1023.46 1023.85 1024.02 1023.87 1023.90 1023.99 1023.97 1023.98 1025.33 1025.71 1025.52 1025.58 1025.66 1025.86 1026.14 1026.43 1026.67 1026.78 1026.87 1026.94 1027.00 1027.14 1027.13 1027.09 1027.07 1027.11 1027.10 1027.03 1026.99 1027.05 1026.93 1026.72
1021.28 1021.28 1021.25 1021.39 1021.62 1021.66 1021.98 1022.46 1022.77 1022.89 1023.11 1023.51 1023.93 1023.97 1023.86 1024.10 1023.95 1024.27 1023.91 1024.29 1025.47 1026.01 1026.29 1026.43 1026.55 1026.72 1026.82 1026.86 1026.91 1027.01 1027.11 1027.23 1027.30 1027.28 1027.21 1027.10 1026.96 1026.92 1026.79 1026.89 1026.89 1026.72 1026.58
1021.15 1021.18 1021.07 1021.30 1021.56 1021.96 1022.08 1022.32 1022.44 1022.82 1023.04 1023.32 1023.74 1023.57 1023.86 1024.24 1024.37 1024.42 1024.39 1024.46 1024.53 1025.10 1026.32 1026.67 1026.96 1027.09 1027.15 1027.23 1027.28 1027.29 1027.27 1027.34 1027.35 1027.30 1027.27 1027.20 1027.10 1026.99 1026.79 1026.70 1026.72 1026.56 1026.37
1020.70 1020.84 1020.77 1021.21 1021.81 1021.79 1021.97 1022.29 1022.40 1022.64 1022.94 1023.26 1023.45 1023.80 1024.07 1024.01 1024.32 1024.17 1024.61 1025.02 1025.27 1025.19 1025.32 1026.53 1026.74 1026.97 1027.13 1027.27 1027.40 1027.40 1027.36 1027.41 1027.43 1027.44 1027.44 1027.39 1027.28 1027.13 1026.96 1026.80 1026.58 1026.34 1026.06
1020.49 1020.76 1020.75 1021.18 1021.72 1021.72 1021.98 1022.29 1022.42 1022.88 1022.85 1022.89 1023.22 1023.56 1024.02 1024.02 1023.96 1024.15 1024.53 1024.89 1025.10 1025.64 1025.83 1025.91 1026.18 1026.44 1026.89 1026.97 1027.27 1027.44 1027.55 1027.60 1027.64 1027.65 1027.60 1027.50 1027.38 1027.22 1027.02 1026.78 1026.54 1026.22 1025.82
1020.33 1020.51 1020.53 1021.41 1021.55 1021.35 1021.92 1022.41 1022.57 1023.04 1023.23 1023.32 1023.31 1023.05 1023.17 1023.64 1023.98 1023.98 1024.29 1024.53 1024.85 1025.47 1025.75 1026.06 1026.23 1025.92 1026.50 1026.86 1027.04 1027.36 1027.62 1027.76 1027.81 1027.73 1027.67 1027.61 1027.51 1027.31 1027.03 1026.70 1026.32 1025.93 1025.52
1019.79 1020.20 1020.47 1020.83 1021.34 1021.09 1021.68 1022.26 1022.60 1022.67 1022.72 1023.24 1022.85 1022.75 1022.46 1022.91 1023.23 1023.81 1023.98 1024.46 1024.88 1025.19 1025.29 1025.71 1026.12 1026.35 1026.42 1026.29 1026.64 1027.08 1027.44 1027.83 1027.93 1027.92 1027.82 1027.71 1027.56 1027.33 1027.03 1026.68 1026.28 1025.84 1025.39
1019.53 1019.82 1020.21 1020.32 1020.85 1020.88 1021.36 1022.04 1022.41 1022.47 1022.54 1023.21 1023.42 1023.59 1022.60 1022.04 1022.37 1022.53 1023.53 1024.04 1024.43 1025.01 1025.18 1025.22 1025.50 1025.84 1026.12 1026.30 1026.47 1026.48 1027.43 1027.82 1027.94 1027.99 1027.87 1027.68 1027.45 1027.19 1026.92 1026.58 1026.16 1025.69 1025.23
1019.27 1019.25 1019.75 1020.21 1020.53 1020.83 1021.01 1021.77 1022.07 1022.33 1022.70 1022.85 1023.14 1023.69 1023.73 1023.54 1023.03 1022.25 1022.48 1023.25 1024.08 1024.52 1024.79 1024.96 1025.10 1025.29 1025.43 1025.71 1026.00 1026.59 1027.31 1027.66 1027.95 1027.90 1027.77 1027.55 1027.25 1026.96 1026.67 1026.37 1025.99 1025.54 1025.05
1018.92 1019.07 1019.58 1020.12 1020.51 1020.89 1021.16 1021.62 1021.97 1022.61 1023.06 1023.55 1023.53 1023.66 1023.32 1023.34 1023.44 1023.34 1022.51 1022.35 1023.06 1023.40 1023.61 1024.08 1024.57 1024.95 1025.19 1025.27 1025.48 1026.63 1027.10 1027.44 1027.57 1027.65 1027.59 1027.38 1027.07 1026.75 1026.44 1026.10 1025.70 1025.24 1024.77
1018.74 1019.26 1019.60 1020.27 1020.96 1021.33 1021.36 1022.11 1022.60 1023.27 1023.53 1023.95 1023.87 1023.50 1023.07 1022.94 1022.70 1022.68 1022.71 1022.62 1022.51 1022.56 1022.86 1023.53 1024.31 1024.56 1024.67 1024.81 1025.23 1026.04 1026.50 1026.88 1027.07 1027.12 1027.20 1027.09 1026.89 1026.54 1026.16 1025.77 1025.39 1024.96 1024.43
1019.22 1019.94 1020.43 1021.12 1021.46 1021.88 1022.26 1022.32 1023.34 1023.62 1024.02 1024.40 1023.57 1023.20 1023.29 1023.20 1023.04 1022.98 1023.03 1022.86 1022.78 1022.62 1022.68 1023.12 1023.65 1024.06 1024.12 1024.35 1024.79 1025.65 1026.02 1026.33 1026.41 1026.51 1026.58 1026.67 1026.53 1026.22 1025.83 1025.50 1025.13 1024.65 1024.13
1019.37 1019.44 1019.96 1021.07 1021.39 1022.07 1022.30 1023.01 1023.27 1024.01 1024.44 1024.23 1023.48 1023.08 1023.29 1023.28 1023.14 1023.13 1023.20 1023.08 1022.85 1022.65 1022.54 1022.53 1022.59 1022.91 1023.36 1023.72 1024.35 1025.08 1025.24 1025.57 1025.77 1025.89 1026.15 1026.16 1026.05 1025.80 1025.50 1025.17 1024.76 1024.34 1023.86
1017.68 1018.61 1019.44 1020.34 1021.20 1021.87 1022.40 1022.89 1023.60 1023.92 1024.24 1023.44 1023.20 1023.36 1023.57 1023.28 1022.94 1022.98 1023.07 1023.17 1022.95 1022.81 1022.56 1022.44 1022.39 1022.52 1022.88 1023.31 1023.85 1024.49 1024.80 1024.97 1025.16 1025.25 1025.24 1025.29 1025.26 1025.18 1024.97 1024.65 1024.30 1023.94 1023.50
1018.08 1018.14 1018.87 1019.96 1020.64 1021.25 1021.83 1022.59 1023.27 1023.29 1023.21 1022.91 1023.01 1023.25 1023.28 1023.13 1022.85 1022.75 1022.69 1022.65 1022.77 1022.90 1022.61 1022.56 1022.34 1022.34 1022.66 1022.92 1023.44 1023.96 1024.29 1024.37 1024.30 1024.25 1024.28 1024.36 1024.45 1024.46 1024.34 1024.06 1023.72 1023.33 1022.96
1017.64 1017.90 1018.53 1019.38 1020.22 1020.96 1021.74 1022.22 1022.77 1022.74 1022.51 1022.69 1023.22 1023.45 1023.13 1022.82 1022.56 1022.50 1022.59 1022.63 1022.65 1022.60 1022.30 1022.06 1021.98 1021.95 1022.18 1022.47 1022.69 1023.00 1023.35 1023.54 1023.43 1023.28 1023.39 1023.53 1023.61 1023.64 1023.46 1023.24 1022.97 1022.69 1022.34
1017.08 1017.53 1018.02 1019.09 1020.21 1020.94 1021.50 1021.87 1022.41 1022.29 1022.67 1023.03 1023.45 1023.51 1022.97 1022.41 1022.18 1022.24 1022.31 1022.19 1022.18 1022.27 1022.11 1021.68 1021.60 1021.61 1021.76 1021.97 1022.17 1022.45 1022.82 1022.85 1022.72 1022.50 1022.55 1022.63 1022.59 1022.54 1022.46 1022.28 1022.01 1021.79 1021.53
1016.86 1017.33 1018.27 1019.45 1020.11 1020.80 1021.35 1021.64 1021.98 1022.27 1023.11 1023.52 1023.36 1022.84 1022.19 1021.90 1021.86 1021.86 1021.74 1021.75 1021.73 1021.70 1021.45 1021.30 1021.15 1021.12 1021.16 1021.39 1021.41 1021.66 1021.93 1021.97 1022.00 1021.56 1021.52 1021.49 1021.48 1021.45 1021.32 1021.12 1020.91 1020.70 1020.44
1017.44 1018.21 1018.91 1019.53 1020.16 1020.51 1020.88 1021.33 1021.79 1022.33 1022.67 1023.23 1023.12 1022.23 1021.81 1021.58 1021.49 1021.50 1021.29 1021.15 1021.09 1021.04 1020.98 1020.81 1020.59 1020.42 1020.38 1020.49 1020.71 1020.99 1021.07 1020.99 1020.92 1020.91 1020.87 1020.67 1020.50 1020.29 1020.11 1019.78 1019.55 1019.42 1019.41
1017.35 1018.17 1018.92 1019.36 1019.70 1020.32 1020.98 1021.50 1022.05 1022.70 1022.72 1022.94 1022.50 1021.82 1021.49 1021.09 1021.22 1021.29 1021.02 1020.59 1020.45 1020.35 1020.13 1019.95 1019.78 1019.67 1019.48 1019.70 1019.87 1020.16 1020.29 1020.50 1020.48 1020.54 1020.13 1019.92 1019.81 1019.54 1018.98 1018.51 1018.02 1017.98 1018.45
1017.43 1018.24 1018.87 1019.28 1019.97 1020.54 1021.36 1021.89 1022.20 1022.28 1022.63 1022.49 1022.10 1021.59 1021.17 1020.89 1020.65 1020.47 1020.10 1019.89 1019.99 1019.89 1019.52 1019.22 1018.97 1018.84 1018.81 1019.02 1019.49 1019.80 1019.98 1020.10 1019.84 1020.08 1019.71 1019.59 1019.41 1018.70 1018.17 1017.78 1017.54 1017.71 1017.88
1017.85 1018.44 1018.88 1019.43 1019.93 1020.71 1021.46 1021.95 1022.24 1022.40 1022.43 1022.19 1021.88 1021.44 1020.73 1020.12 1019.59 1019.21 1018.83 1018.54 1018.51 1018.62 1018.91 1018.82 1018.34 1018.15 1018.25 1018.35 1018.96 1019.39 1019.65 1019.71 1019.47 1019.52 1019.75 1018.90 1018.63 1017.97 1017.59 1017.14 1017.17 1017.17 1017.05
1018.32 1018.71 1019.15 1019.56 1019.93 1020.42 1021.29 1021.68 1021.91 1022.04 1021.94 1021.54 1020.99 1020.19 1019.63 1019.26 1018.99 1018.71 1018.35 1017.91 1017.42 1017.07 1017.34 1017.73 1017.84 1017.52 1017.72 1018.02 1018.45 1018.86 1019.25 1019.44 1019.46 1019.28 1018.98 1018.08 1017.93 1017.53 1017.39 1017.22 1016.84 1016.53 1016.44
1018.08 1018.54 1018.99 1019.53 1020.09 1020.59 1021.00 1021.42 1021.67 1021.61 1020.93 1020.40 1020.06 1019.60 1019.17 1018.77 1018.47 1018.34 1018.13 1017.59 1016.80 1016.00 1015.90 1016.43 1016.78 1017.26 1017.93 1018.29 1018.57 1018.70 1019.06 1019.19 1018.74 1018.40 1018.03 1017.64 1017.45 1017.24 1017.00 1016.78 1016.29 1016.71 1016.48
1018.73 1019.06 1019.67 1020.05 1020.31 1020.57 1020.56 1021.03 1021.42 1021.23 1020.88 1020.41 1020.04 1019.40 1018.97 1018.69 1018.37 1018.05 1017.74 1017.19 1016.51 1015.45 1015.40 1015.55 1016.29 1016.66 1017.24 1017.72 1018.42 1018.58 1018.69 1018.66 1018.35 1017.78 1017.49 1017.42 1017.28 1017.31 1016.65 1016.36 1015.98 1015.86 1015.34
Wind_Speed
6 7 6 7 7 6 6 5 6 5 4 4 4 3 5 4 3 3 7 12 11 7 9 8 9 9 7 6 6 5 5 6 7 8 9 11 6 7 10 11 12 14 15
5 5 6 7 6 7 6 5 5 5 3 4 4 3 3 3 4 3 5 9 13 12 10 9 9 7 6 5 4 5 7 7 8 10 11 11 9 9 12 10 10 12 14
8 8 7 6 6 5 5 5 4 3 3 2 3 4 4 2 4 2 2 6 9 12 12 10 8 7 6 5 6 6 7 9 10 11 12 12 13 11 12 8 11 13 14
9 8 6 6 6 6 6 5 5 4 4 3 2 2 1 0 2 2 2 3 0 8 10 10 8 7 7 7 7 7 8 9 10 11 12 14 16 17 17 14 15 16 16
11 8 6 6 6 6 5 5 4 4 4 3 2 1 1 2 2 1 2 1 2 3 4 9 9 7 5 4 6 7 8 9 10 11 13 14 15 17 18 19 20 20 18
10 8 6 6 8 6 6 7 5 3 3 2 2 3 3 3 3 3 3 4 3 2 4 3 4 8 9 8 3 3 6 7 8 10 12 14 16 17 18 19 20 21 22
10 9 7 8 8 7 8 6 5 6 5 3 3 6 7 7 5 4 4 5 5 5 2 5 4 4 5 8 7 5 2 7 9 11 13 15 17 18 20 21 22 23 23
11 10 9 9 11 9 8 8 8 6 5 5 3 5 6 5 7 8 5 5 5 4 6 6 4 5 5 7 7 7 4 3 7 11 14 15 17 18 20 21 22 24 24
12 13 12 10 11 9 9 9 9 8 6 4 4 5 5 5 4 9 9 6 6 6 7 5 7 7 6 6 6 3 8 3 4 10 14 17 19 20 22 23 24 25 25
13 13 12 12 10 8 8 8 7 7 4 4 3 5 8 7 5 5 7 9 7 7 8 7 6 6 6 6 5 7 8 6 4 10 15 19 20 20 21 22 23 25 26
12 11 11 10 9 7 6 7 7 6 3 2 4 4 7 6 7 6 7 5 9 9 8 6 6 5 7 7 5 11 9 3 6 13 17 18 19 20 21 22 23 24 25
8 9 7 5 3 3 5 5 4 5 1 5 3 8 7 7 6 7 8 8 8 7 5 4 4 6 6 6 6 6 4 3 9 13 15 18 19 20 21 22 23 24 25
3 4 3 3 1 3 5 8 4 1 2 5 9 6 7 7 6 6 7 7 8 7 6 6 6 6 7 6 6 2 1 6 12 11 15 17 20 22 22 22 23 24 25
8 9 12 10 9 6 7 6 4 2 5 8 9 7 7 5 6 6 7 7 8 8 8 10 6 6 6 6 3 6 8 8 7 8 12 17 20 20 21 22 23 24 25
11 14 15 12 10 8 7 7 5 6 8 10 6 5 7 7 7 6 7 7 7 9 9 9 8 8 6 5 3 6 10 14 9 11 16 18 19 19 21 23 24 24 25
11 13 12 14 13 12 10 9 6 8 12 3 4 5 7 9 8 7 7 7 7 8 10 9 9 9 8 7 7 7 12 13 15 14 14 16 15 17 21 23 24 24 23
12 13 13 13 12 12 9 9 10 10 6 6 3 6 13 12 9 8 7 7 8 8 9 9 9 9 9 10 10 9 9 11 11 13 9 10 11 15 20 22 22 21 21
12 11 11 13 13 9 10 10 7 6 8 3 3 12 15 11 11 10 8 10 9 10 9 13 10 9 10 10 10 10 10 11 11 14 12 10 15 16 19 19 20 21 22
3 4 8 10 9 8 9 8 10 9 3 3 9 14 15 12 11 9 10 10 9 10 10 9 11 8 8 8 10 10 10 10 11 15 12 14 16 17 18 20 21 22 21
6 7 8 8 8 10 8 9 6 5 3 6 14 12 13 13 13 13 12 12 12 12 11 11 10 9 9 9 8 9 10 9 9 10 10 13 12 16 18 21 22 23 22
8 8 8 8 6 7 6 8 7 5 4 10 13 12 12 13 13 13 11 12 13 13 12 12 10 11 9 9 9 9 9 9 10 9 10 9 9 9 10 12 14 17 14
7 9 9 10 8 6 11 8 7 6 6 9 11 12 14 15 15 19 20 20 19 18 18 13 11 11 13 9 9 8 9 9 11 8 9 10 9 10 9 8 5 2 5
7 7 7 8 9 9 9 6 4 3 5 7 11 13 14 13 15 16 16 20 19 19 19 17 16 14 13 9 9 10 11 10 11 9 10 11 9 10 9 9 7 7 10
8 8 9 9 8 5 10 8 5 3 7 11 15 15 15 15 15 15 15 16 17 15 16 13 16 15 12 10 9 10 10 11 10 10 11 11 8 9 9 9 15 15 3
6 5 4 5 4 5 1 3 4 8 11 13 14 16 15 16 16 14 14 16 18 17 12 17 16 7 5 4 4 6 7 9 9 10 9 9 9 9 8 9 8 4 13
6 4 4 1 2 6 9 5 5 7 11 10 13 15 13 14 16 16 14 15 17 18 14 12 13 12 11 10 10 10 9 9 9 10 9 8 9 9 10 8 6 8 8
Wind_Direction
198 199 164 165 172 148 167 154 139 143 129 107 94 103 108 98 71 16 95 64 40 73 127 125 123 123 112 93 89 71 52 32 15 356 354 354 354 4 5 357 2 358 353
186 172 180 170 161 175 165 162 146 161 139 129 126 93 80 70 73 355 116 102 71 61 72 83 92 107 104 100 67 29 3 2 356 351 349 343 336 337 325 340 342 343 343
188 183 185 172 176 162 149 108 159 141 161 162 132 161 142 146 108 82 1 136 125 93 82 72 70 65 57 39 29 14 2 359 347 339 334 329 324 319 320 324 318 323 332
192 195 181 188 170 158 175 168 179 175 178 194 162 130 84 1 67 65 47 299 1 138 114 101 82 64 52 30 6 352 347 347 345 341 339 339 336 336 334 331 320 320 318
186 202 192 179 173 179 178 189 189 201 152 204 188 248 334 278 199 199 66 221 46 306 78 131 141 133 106 50 6 350 352 349 344 344 341 336 330 326 323 321 320 315 310
195 205 196 166 201 191 182 202 185 185 218 189 223 197 240 252 244 240 213 244 175 264 272 321 194 160 159 136 125 354 348 345 339 337 333 331 328 325 320 314 310 306 304
195 200 194 189 210 201 205 178 180 188 185 178 239 226 219 200 231 241 208 233 202 215 292 284 280 313 157 174 155 134 354 321 325 326 331 329 327 324 320 317 313 310 306
198 198 212 193 207 201 187 192 201 193 199 187 274 291 291 194 190 205 220 216 241 261 255 216 261 281 288 305 137 176 137 327 333 331 329 325 322 317 313 309 307 304 303
212 210 210 206 200 214 191 197 202 210 199 191 254 310 294 307 330 171 193 219 224 224 253 259 238 232 247 273 284 151 130 117 359 328 323 319 315 311 308 305 302 299 298
214 215 207 214 205 211 203 196 201 203 218 228 232 265 276 301 285 279 180 189 215 228 235 246 277 287 264 250 271 86 102 70 353 321 315 315 311 310 308 305 303 301 299
217 216 214 210 208 217 215 204 189 192 183 295 342 329 252 252 242 273 282 265 190 208 216 216 245 287 281 274 274 119 131 124 335 318 314 313 311 310 308 305 302 300 297
199 217 228 202 205 230 200 217 164 139 291 274 265 254 267 267 266 250 250 256 269 278 268 261 279 267 275 285 288 121 103 333 302 301 302 309 310 308 305 302 301 299 296
166 188 186 215 152 165 93 124 153 168 211 251 241 255 259 271 280 285 282 279 280 278 269 249 235 254 257 262 285 84 244 253 282 284 297 303 304 302 301 301 300 299 297
175 205 189 196 176 146 164 166 140 141 238 245 253 244 282 285 262 260 273 283 278 275 268 266 262 245 261 273 350 195 291 266 279 310 300 295 296 298 301 301 299 298 295
188 189 198 186 167 169 142 130 171 214 239 234 239 262 273 262 259 258 255 265 277 280 280 290 290 289 286 278 312 298 295 294 299 281 275 277 281 293 296 299 298 298 295
203 193 183 189 188 170 147 174 201 219 229 195 223 277 255 253 261 262 265 267 257 260 273 276 280 287 292 289 278 282 285 281 269 265 255 256 277 291 297 296 296 295 295
203 204 192 191 179 166 164 187 221 229 206 216 302 302 265 267 259 263 261 256 258 264 271 276 278 284 283 285 277 261 282 289 284 273 243 244 276 282 287 292 292 290 289
217 202 190 180 173 172 188 201 212 219 206 183 296 266 262 257 252 246 252 263 260 261 271 278 278 287 287 290 285 287 277 276 287 290 276 242 258 267 273 280 279 280 284
181 129 149 176 175 189 206 179 202 198 136 284 285 268 262 254 250 254 253 257 258 264 261 261 273 276 274 278 278 278 272 278 275 273 255 248 247 248 258 264 269 272 275
142 163 176 173 188 185 185 193 120 154 207 285 273 271 273 270 265 258 257 247 249 253 264 268 265 270 269 268 273 277 269 265 295 295 299 272 264 266 265 259 256 258 265
172 172 172 170 149 160 166 152 136 199 260 262 269 272 271 265 270 277 277 278 269 262 249 248 257 261 265 269 275 284 287 288 286 294 286 298 307 299 289 291 286 242 253
126 153 167 172 149 126 117 156 204 238 269 275 289 288 285 279 268 251 246 246 254 267 271 263 256 262 262 267 274 269 272 282 288 284 305 299 293 292 296 293 298 259 278
138 133 139 141 148 152 157 171 173 243 257 265 268 271 271 264 265 276 264 236 239 244 243 258 257 252 271 269 271 273 269 269 276 297 297 283 293 294 304 310 317 269 261
145 152 163 178 193 197 168 192 223 271 267 258 259 264 280 282 278 282 284 281 274 247 240 238 245 253 258 257 257 258 270 278 280 270 269 280 299 298 314 310 307 301 278
133 129 145 161 200 240 101 248 251 262 268 285 289 285 286 288 291 292 290 285 274 262 232 221 227 226 132 141 229 256 253 267 267 272 278 289 293 291 302 298 299 175 275
80 83 77 53 254 264 245 268 305 313 305 301 298 297 291 287 294 286 279 278 278 271 255 228 228 217 209 215 192 231 242 245 256 270 273 290 300 310 302 301 312 302 309